Tracking 31027 objects as of 19-Jul-2025
HD Live streaming from Space Station
objects crossing your sky now

TOS R/B

Track TOS R/B now!


NORAD ID: 22797
Int'l Code: 1993-058D
Perigee: 353.3 km
Apogee: 37,946.9 km
Inclination: 14.6 °
Period: 676.3 minutes
Semi major axis: 25521 km
RCS: 9.198 m2 (large)
Launch date: September 12, 1993
Source: United States (US)
Launch site: AIR FORCE EASTERN TEST RANGE (AFETR)

Note: This is a ROCKET BODY
Your satellite tracking list
FENGYUN 1C DEB
Track 1 satellite(s)




NASA's NSSDC Master Catalog

Two Line Element Set (TLE):
1 22797U 93058D   25199.40083114  .00000202  00000-0  21595-3 0  9998
2 22797  14.6153 188.4109 7365197 217.1349  56.6268  2.12938052241276
Source of the keplerian elements: AFSPC